Location: Hertford
(51.8000°N, 0.0667°W)
Time: 00:50:57
(UTC+00:00)

ATLAS 2AS CENTAUR R/B - Pass Details

Date: 18 September 2020
Orbit: 939 x 1273 km, 63.7° (Epoch: 27 October)

Event Time Altitude Azimuth Distance (km) Brightness Sun altitude
Rises 19:14:51 0° 154° (SSE) 4,198 5.4 -11.1°
Enters shadow 19:16:58 - 145° (SE) 3,692 5.0 -11.5°
Exits shadow 19:24:46 13° 88° (E) 3,005 4.5 -12.6°
Drops below altitude 10° 19:26:52 10° 73° (ENE) 3,262 4.8 -12.9°
Sets 19:31:13 0° 51° (NE) 4,208 5.5 -13.5°
